Regional Weather Roundup
Issued by NWS

Home | Current Version | Previous Version | Graphics & Text | Print | Product List | Glossary Off
Versions: 1 2 3 4 5 6 7 8 9 10 11 12 13 14 15 16 17 18 19 20 21 22 23 24 25 26 27 28 29 30 31 32 33 34 35 36 37 38 39 40 41 42 43 44 45 46 47 48 49 50

000
ASUS43 KBIS 250202
RWRND

NORTH DAKOTA REGIONAL WEATHER ROUNDUP
NATIONAL WEATHER SERVICE BISMARCK ND
800 PM CST FRI NOV 24 2017

NOTE: "FAIR" INDICATES FEW OR NO CLOUDS BELOW 12,000 FEET WITH NO
SIGNIFICANT WEATHER AND/OR OBSTRUCTIONS TO VISIBILITY.


NDZ001>003-009>011-017-250300-
NORTHWEST NORTH DAKOTA

CITY           SKY/WX    TMP DP  RH WIND       PRES   REMARKS
WILLISTON      CLEAR     38  30  73 W13       29.84R
MINOT          MOCLDY    39  30  70 W14       29.79R
MINOT AFB      PTCLDY    35  29  80 NW10      29.78R
$$

NDZ018>021-031>035-040>046-250300-
SOUTHWEST NORTH DAKOTA

CITY           SKY/WX    TMP DP  RH WIND       PRES   REMARKS
BISMARCK       CLOUDY    43  31  62 W7        29.85R
DICKINSON      CLEAR     36  28  73 W13       29.86R
GARRISON         N/A     36  30  79 NW9       29.82R
HETTINGER ARPT CLEAR     28  24  85 W3        29.92R
$$

NDZ004>008-012>016-024-026-027-054-250300-
NORTHEAST NORTH DAKOTA

CITY           SKY/WX    TMP DP  RH WIND       PRES   REMARKS
GRAND FORKS    CLEAR     38  33  82 NW13      29.71R
GRND FRKS AFB  CLEAR     38  32  78 NW14      29.72R
DEVILS LAKE    CLEAR     36  31  82 W13       29.75R
$$

NDZ022-023-025-028>030-036>039-047>053-250300-
SOUTHEAST NORTH DAKOTA

CITY           SKY/WX    TMP DP  RH WIND       PRES   REMARKS
FARGO          CLEAR     42  34  73 NW21      29.72R
JAMESTOWN      CLEAR     37  31  78 W10       29.78R
$$




USA.gov is the U.S. government's official web portal to all federal, state and local government web resources and services.